| time (UTC) | temp F | wind direction | speed MPH | gust MPH | rain 1hr in | rain 24hr in | rain mn in | humidity % | barometer mb |
| 20260503012956 | 55 | 186 | 2.0 | 3.0 | 0.00 | 0.00 | 0.00 | 39 | 1014.8 |
| 20260503011457 | 56 | 195 | 2.0 | 5.0 | 0.00 | 0.00 | 0.00 | 38 | 1014.8 |
| 20260503005956 | 57 | 189 | 2.0 | 8.0 | 0.00 | 0.00 | 0.00 | 36 | 1014.9 |
| 20260503004457 | 58 | 192 | 1.0 | 8.0 | 0.00 | 0.00 | 0.00 | 35 | 1014.9 |
| 20260503002957 | 59 | 228 | 4.0 | 9.0 | 0.00 | 0.00 | 0.00 | 32 | 1015.0 |
| 20260503001457 | 60 | 239 | 5.0 | 12.0 | 0.00 | 0.00 | 0.00 | 30 | 1015.1 |
| 20260502235957 | 60 | 239 | 7.0 | 13.0 | 0.00 | 0.00 | 0.00 | 30 | 1015.2 |
| 20260502234456 | 60 | 250 | 8.0 | 12.0 | 0.00 | 0.00 | 0.00 | 30 | 1015.3 |
| 20260502232957 | 60 | 243 | 6.0 | 12.0 | 0.00 | 0.00 | 0.00 | 30 | 1015.5 |
| 20260502231456 | 60 | 275 | 4.0 | 12.0 | 0.00 | 0.00 | 0.00 | 29 | 1015.7 |
| 20260502225957 | 60 | 253 | 6.0 | 20.0 | 0.00 | 0.00 | 0.00 | 30 | 1015.8 |
| 20260502224457 | 61 | 244 | 10.0 | 20.0 | 0.00 | 0.00 | 0.00 | 29 | 1016.0 |
| 20260502222957 | 61 | 254 | 7.0 | 14.0 | 0.00 | 0.00 | 0.00 | 31 | 1016.0 |
| 20260502215957 | 60 | 248 | 9.0 | 16.0 | 0.00 | 0.00 | 0.00 | 30 | 1016.3 |
| 20260502214457 | 60 | 252 | 6.0 | 17.0 | 0.00 | 0.00 | 0.00 | 32 | 1016.4 |
| 20260502212957 | 60 | 270 | 7.0 | 16.0 | 0.00 | 0.00 | 0.00 | 29 | 1016.6 |
| 20260502211457 | 60 | 224 | 8.0 | 20.0 | 0.00 | 0.00 | 0.00 | 31 | 1016.7 |
| 20260502205957 | 60 | 244 | 5.0 | 14.0 | 0.00 | 0.00 | 0.00 | 29 | 1016.9 |
| 20260502204457 | 60 | 223 | 6.0 | 15.0 | 0.00 | 0.00 | 0.00 | 31 | 1017.2 |
| 20260502202958 | 59 | 291 | 5.0 | 14.0 | 0.00 | 0.00 | 0.00 | 30 | 1017.3 |
| 20260502201458 | 59 | 263 | 7.0 | 14.0 | 0.00 | 0.00 | 0.00 | 30 | 1017.6 |
| 20260502195957 | 59 | 291 | 7.0 | 15.0 | 0.00 | 0.00 | 0.00 | 29 | 1017.9 |
| 20260502192958 | 58 | 250 | 5.0 | 14.0 | 0.00 | 0.00 | 0.00 | 30 | 1018.2 |
| 20260502191457 | 58 | 240 | 5.0 | 10.0 | 0.00 | 0.00 | 0.00 | 30 | 1018.4 |
| 20260502185957 | 57 | 261 | 6.0 | 14.0 | 0.00 | 0.00 | 0.00 | 31 | 1018.6 |
| 20260502184457 | 57 | 238 | 5.0 | 16.0 | 0.00 | 0.00 | 0.00 | 34 | 1018.7 |
| 20260502182958 | 57 | 287 | 7.0 | 13.0 | 0.00 | 0.00 | 0.00 | 32 | 1018.9 |
| 20260502181458 | 56 | 231 | 4.0 | 15.0 | 0.00 | 0.00 | 0.00 | 32 | 1019.1 |
| 20260502162957 | 54 | 332 | 4.0 | 13.0 | 0.00 | 0.00 | 0.00 | 34 | 1020.1 |
| 20260502161458 | 54 | 290 | 2.0 | 8.0 | 0.00 | 0.00 | 0.00 | 37 | 1020.2 |
| 20260502151457 | 51 | 328 | 2.0 | 10.0 | 0.00 | 0.00 | 0.00 | 46 | 1020.4 |
| 20260502122957 | 38 | 293 | 1.0 | 3.0 | 0.00 | 0.00 | 0.00 | 82 | 1020.4 |
| 20260502121457 | 37 | 92 | 0.0 | 0.0 | 0.00 | 0.00 | 0.00 | 84 | 1020.3 |
| 20260502114458 | 34 | 92 | 0.0 | 0.0 | 0.00 | 0.00 | 0.00 | 86 | 1020.1 |
| 20260502112958 | 33 | 92 | 0.0 | 0.0 | 0.00 | 0.00 | 0.00 | 86 | 1020.0 |
| 20260502111458 | 33 | 92 | 0.0 | 0.0 | 0.00 | 0.00 | 0.00 | 85 | 1019.8 |
| 20260502105958 | 33 | 92 | 0.0 | 0.0 | 0.00 | 0.00 | 0.00 | 84 | 1019.8 |
| 20260502104458 | 34 | 92 | 0.0 | 0.0 | 0.00 | 0.00 | 0.00 | 83 | 1019.7 |
| 20260502102957 | 34 | 92 | 0.0 | 0.0 | 0.00 | 0.00 | 0.00 | 82 | 1019.6 |
| 20260502101457 | 35 | 92 | 0.0 | 0.0 | 0.00 | 0.00 | 0.00 | 82 | 1019.5 |
| 20260502071458 | 40 | 71 | 2.0 | 7.0 | 0.00 | 0.00 | 0.00 | 63 | 1019.5 |
| 20260502065958 | 40 | 67 | 2.0 | 6.0 | 0.00 | 0.00 | 0.00 | 62 | 1019.6 |
| 20260502062959 | 40 | 35 | 3.0 | 6.0 | 0.00 | 0.00 | 0.00 | 60 | 1019.6 |
| 20260502055958 | 40 | 24 | 2.0 | 3.0 | 0.00 | 0.00 | 0.00 | 60 | 1019.4 |
| 20260502054458 | 41 | 30 | 2.0 | 3.0 | 0.00 | 0.00 | 0.00 | 59 | 1019.4 |
| 20260502052958 | 41 | 26 | 2.0 | 3.0 | 0.00 | 0.00 | 0.00 | 59 | 1019.3 |
| 20260502045958 | 41 | 24 | 2.0 | 3.0 | 0.00 | 0.00 | 0.00 | 60 | 1019.2 |
| 20260502042958 | 41 | 24 | 1.0 | 3.0 | 0.00 | 0.00 | 0.00 | 61 | 1019.1 |
| 20260502041458 | 42 | 10 | 2.0 | 3.0 | 0.00 | 0.00 | 0.00 | 59 | 1019.0 |
| 20260502035958 | 42 | 10 | 2.0 | 3.0 | 0.00 | 0.00 | 0.00 | 57 | 1019.0 |
| 20260502034458 | 43 | 19 | 2.0 | 3.0 | 0.00 | 0.00 | 0.00 | 57 | 1018.9 |
| 20260502032958 | 43 | 26 | 0.0 | 0.0 | 0.00 | 0.00 | 0.00 | 58 | 1018.8 |
| 20260502031458 | 43 | 26 | 0.0 | 0.0 | 0.00 | 0.00 | 0.00 | 57 | 1018.6 |
| 20260502022958 | 45 | 36 | 0.0 | 2.0 | 0.00 | 0.00 | 0.00 | 54 | 1018.0 |
| 20260502021458 | 46 | 11 | 1.0 | 3.0 | 0.00 | 0.00 | 0.00 | 52 | 1017.9 |
| 20260502015958 | 47 | 39 | 1.0 | 3.0 | 0.00 | 0.00 | 0.00 | 50 | 1017.8 |
| 20260502014458 | 48 | 5 | 1.0 | 3.0 | 0.00 | 0.00 | 0.00 | 49 | 1017.5 |